Snohomish County tax liens

Snohomish County tax liens

Federal tax liens

201408050219: Aug. 5; Monti Karen R, 17402 84th Ave. Ne, Arlington

201408050220: Aug. 5; Pentin Patricia A, 24006 48th Ave. W., Mountlake Terrace

201408050221: Aug. 5; Three Monkeys Ventures L L C, 715 100th St. SE, Suite A2, Everett

201408050222: Aug. 5; Nehring Robert, 1806 S Lake Stevens Road #B, Lake Stevens

201408050223: Aug. 5; Knight Robert D, 12711 238th Street S W, Snohomish

201408050224: Aug. 5; Sarsten Robert G Jr, 2801 S Machias Road, Snohomish

201408050351: Aug. 5; Commercial Aircraft Interiors L L C, 5916 195th St. NE, Arlington

201408050352: Aug. 5; Brand Todd L Hilden, 609 54th St. Sw, Everett

201408050353: Aug. 5; Chandran Rahul, 20528 Richmond Road, Bothell

201408050354: Aug. 5; Elliott Eric M, P.O. Box 2131, Lynnwood

201408050355: Aug. 5; Mayberry Michael G, P.O. Box 515, Lake Stevens

201408050356: Aug. 5; Danas Transmission &Automotive Service Inc, 9131 Evergreen Way, Everett

201408050357: Aug. 5; Varnell Steven R, 5714 95th Ave. Ne, Lake Stevens

201408050358: Aug. 5; Crosby Coffee Group Inc, 7825 188th St. Se, Snohomish

201408050359: Aug. 5; Carlson Lacey A, 6703 224th St. Sw, Mountlake Terrace

201408050360: Aug. 5; Downing David R, 4229-76th St. Ne, Marysville

201408120200: Aug. 12; Thompson James S, 19629 9th Drive Se, Bothell

201408120201: Aug. 12; Teegarden Bryan D, P.O. Box 12518, Mill Creek

201408120202: Aug. 12; Arnold Jean T, 12414 Highway 99 Suite 9, Everett

201408120203: Aug. 12; Chang Jin, 1020 167th Place Sw, Lynnwood

201408050355: Aug. 5; Mayberry Michael G, P.O. Box 515, Lake Stevens

201408050356: Aug. 5; Danas Transmission &Automotive Service Inc, 9131 Evergreen Way, Everett

201408050357: Aug. 5; Varnell Steven R, 5714 95th Ave. Ne, Lake Stevens

201408050358: Aug. 5; Crosby Coffee Group Inc, 7825 188th St. Se, Snohomish

201408050359: Aug. 5; Carlson Lacey A, 6703 224th St. Sw, Mountlake Terrace

201408050360: Aug. 5; Downing David R, 4229-76th St. Ne, Marysville

201408120200: Aug. 12; Thompson James S, 19629 9th Drive Se, Bothell

201408120201: Aug. 12; Teegarden Bryan D, P O Box 12518, Mill Creek

201408120202: Aug. 12; Arnold Jean T, 12414 Highway 99 Suite 9, Everett

201408120203: Aug. 12; Chang Jin, 1020 167th Place Sw, Lynnwood

201408120204: Aug. 12; Airo Inc, 17804 48th Drive NE, #C, Arlington

201408120205: Aug. 12; Dance Elite L L C, 1211 164th St. Sw Suite 103, Lynnwood

201408120206: Aug. 12; Lane Galen A, 7020 Wesley Charles Lane, Tulalip

201408120207: Aug. 12; C C S Retail Systems Inc, 2100 196th St. Sw Suite 112, Lynnwood

201408120208: Aug. 12; Appliance Installations Plus Inc, 11531 23rd Drive Se, Everett

201408120209: Aug. 12; Schwindt Robert H, 24805 147th St. SE, Monroe

201408120210: Aug. 12; Milo’s Island L L C, 21110 76th Ave. W Suite A Edmonds

201408120211: Aug. 12; Artistic Eco Lesign Inc, 818 175th Ave. NE, Snohomish

201408120284: Aug. 12; Still Waters Massage Inc, 1300 N Custer Road Unit 6227 Allen

201408120285: Aug. 12; Mccoy Opal L, P.O. Box 344 Darrington

201408120286: Aug. 12; Thomas Robert J, 21231 89th Ave. NE, Arlington

201408120287: Aug. 12; Van-Wyngarden Jaime J, 4514 58th Drive NE, Marysville

201408190182: Aug. 19; Kirk Taylor J, P.O. Box 324 Lake Stevens

201408190183: Aug. 19; Floe Warren, 12118 54th Drive NE, Marysville

201408190184: Aug. 19; West Coast Construction Co Inc, P.O. Box 419 Woodinville

201408190185: Aug. 19; Krouse Jason W, 18716 40th Ave. W Lynnwood

201408190186: Aug. 19; Pynsky Raymond, P.O. Box 12014 Mill Creek

201408190187: Aug. 19; Cafe Twin Eagles Inc, 1206 1St. St. Snohomish

201408190188: Aug. 19; Jacola Jaye, 1823 Sr 530 Arlington

201408190189: Aug. 19; Van-Wetter Scott, 8926 206th St. SE, Snohomish

201408190206: Aug. 19; Stewart Cheryl, 1254 Locker Ave. Everett

201408190207: Aug. 19; Eigenberger Ilene D, 15406 40th Ave. W Apt 5 Lynnwood

201408190208: Aug. 19; Ward Stephen, 12005 207th Ave. SE, Snohomish

201408190209: Aug. 19; Spratley Maria E, 1111 47th St. SE, Apt 415 Everett

201408190210: Aug. 19; Nehring Robert, 1806 S Lake Stevens Road # B Lake Stevens

201408190211: Aug. 19; Spies James Michael, 5116 70th Drive NE, Marysville

201408260178: Aug. 26; Right Choice Inc, 1509 6th St. 218 Marysville

201408260179: Aug. 26; Boone Addie E, 17430 Mcrae Road NW Trlr 2 Arlington

201408260180: Aug. 26; Supply Company L L C, 17404 147th St. SE, Suite I Monroe

201408260181: Aug. 26; Arnold Mary L, 8527 228th St. Sw Edmonds

201408260182: Aug. 26; Kinkead Guy A, 6821 40th St. NE, Marysville

201408260193: Aug. 26; Melissa Lehan Inc, 23920 Bothell-Everett Highway Bothell

201408260194: Aug. 26; Pineda Precision Inc, 13127 Bev Pk Road Lynnwood

201408260195: Aug. 26; Ruhaak Gloria, 19031 33rd Ave. W Lynnwood

201408260196: Aug. 26; Thrash Frank, 5222 158th Place Sw Edmonds

201408260197: Aug. 26; Chamberlin Michael, 22121 95th Place W Edmonds

201408260198: Aug. 26; Edson Matthew A, P.O. Box 80 Gold Bar

201408260199: Aug. 26; Stocker Susan L, 20010 112th Drive SE, Snohomish

201408260200: Aug. 26; Brockway Randall, 11014 19th Ave. SE, Apt 8 115 Everett

201408260201: Aug. 26; Stephens Mark, 1403 Maple St. Everett

201408260202: Aug. 26; Ieplexus Inc, 21312 30th Drive SE, Suite 201 Bothell

201408260203: Aug. 26; Sky May Enterprises, 12228 Championship Cir Mukilteo

201408260204: Aug. 26; Mueller John, 209 Caspers St. Edmonds

201408260205: Aug. 26; Chamberlin Michael, 22121 95th Place W Edmonds

201408260206: Aug. 26; Balint Eva I, 23229 Highway 99 D203 Edmonds

201408260207: Aug. 26; Vakalala Salanieta B, 3418 Serene Way Lynnwood

201408260208: Aug. 26; Chang Dok, 16819 89th Ave. NW, Stanwood

201408260209: Aug. 26; Burns Robert R, 16700 23Road Ave. SE, Bophell

201408260210: Aug. 26; Walker Kerry D, 615 108th Place SE, Everett

201408260211: Aug. 26; Zorich Matthew, 3807 Lincoln Way Apt A Lynnwood

201408260212: Aug. 26; York Export Inc, 16521 13th Ave. W Suite 101 Lynnwood

201408260213: Aug. 26; Ponciano Gilda, 12900 48th Drive NE, Marysville

Federal tax lien — paid for

201408260526: Aug. 26, Guenthner Deborah A, 20902 67th Ave. NE, Arlington

Release of federal tax lien

201408050371: Aug. 5, 13410 Highway 99 Suite 201 Everett, Hact Construction Corp

201408120212: Aug. 12, 6225 47th Ave. NE Apt 16 Marysville, Hanney Russell Dee

201408120213: Aug. 12, 1430 W Casino Rd Apt 93 Everett, Jacques Julia R

201408120214: Aug. 12, 2333 84th Ave. NE Lake Stevens, Bartow Christopher P

201408120215: Aug. 12, 7021 66th Drive NE Marysville, Johnson Daniel J

201408120216: Aug. 12, 18816A Iris Court Arlington, Schorr Susan B

201408120217: Aug. 12, 7932 30th St. SE Everett, Home Star Team Inc

201408120218: Aug. 12, 500 Elm Way Apt 34 Edmonds, Barnhart Gregory A

201408120219: Aug. 12, 3310 81St Drive NE Marysville, United Transportation Union Local 324

201408120220: Aug. 12, 16228 29th Drive SE Mill Creek, Jang Brian L, , Perm

201408120221: Aug. 12, 8129 Beverly Blvd Everett, Harvard Cleaning Services

201408120222: Aug. 12, 1106 142nd St. SW Lynnwood, West Wendy A

201408190191: Aug. 19, 18131 52nd Ave. W Apt 340 Lynnwood, Mahil Kuldip

201408190192: Aug. 19, 18131 52nd Ave. W Apt 340 Lynnwood, Mahil Kuldip

201408190193: Aug. 19, 9131 4th Ave. W Apt G Everett, Stevens Shawn E

201408190194: Aug. 19, 7024 45th St. NE Marysville, Pavement Markings Inc

201408190195: Aug. 19, 1808 118th Ave. NE Lake Stevens, Hobday Diane M

201408190196: Aug. 19, 738 Caspers St. Edmonds, Burwell Stanley B

201408190197: Aug. 19, 7405 10th St. SE Everett, Yates Timothy J

201408190198: Aug. 19, 3609 216th Drive SW Brier, Park Jae, , Temp

201408190199: Aug. 19, 20529 Maplewood Drive Edmonds, Obrien Business Group L L C

201408190200: Aug. 19, P.O. Box 1145 Stanwood, Wes Wed Corporation

201408190201: Aug. 19, P.O. Box 1145 Stanwood, Wes Weld Corporation

201408190202: Aug. 19, 3609 216th Drive SW Brier, Park Jae

201408190203: Aug. 19, 21911 64th Ave. W Mt Lake Terrance, Wooding Stephen

201408190204: Aug. 19, 3211 82nd Drive NE Marysville, Krako Christopher M

201408260183: Aug. 26, 11003 23Rd Drive SE Everett, Connors Michael K

201408260214: Aug. 26, 13919 25th Drive Bothell, Flickinger James

201408260215: Aug. 26, 17023 57th Pl W Lynnwood, Hall Wayne

201408260216: Aug. 26, 13928 92nd St. Snohomish, Gough Christopher, , Temp

201408260217: Aug. 26, 1114 A Ave. S Rear Edmonds, Wellendorf Dan

201408260218: Aug. 26, 605 Broadway St. Arlington, Stoddard Erika F

201408260219: Aug. 26, 6814 278th St. NE Arlington, Hamilton Hazel

201408260220: Aug. 26, 6114 204th St. SW Lynnwood, Central Protection Inc

201408260221: Aug. 26, P.O. Box 1608 Woodinville, Boomars Lincoln

201408260222: Aug. 26, 15214 50th Pl W Edmonds, Bert Nick W

Partial release of federal tax lien

201408190190: Aug. 19, 606 Duchess Road, Bothell, Lucarelli Stacie M

201408190212: Aug. 19, 1014 Rucker Ave., Everett, Rubin Pamela A

201408190213: Aug. 19, 1014 Rucker Ave., Everett, Rubin Pamela A

Withdrawal of federal tax lien

201408120223: Aug. 12, 19009 33rd Ave. W Suite 203B, Lynnwood, Mukilteo Hotel L L C

201408120288: Aug. 12, 5802 Wetmore Ave., Everett, Quast Warren B